Location: Julian California
(33.0790°N, 116.6010°W)
Time: 03:45:23
(UTC-07:00)

Meteor 2-13 Rocket - Pass Details

Date: 14 June 2018
Orbit: 935 x 959 km, 82.5° (Epoch: 18 June)

Event Time Altitude Azimuth Distance (km) Brightness Sun altitude
Rises 23:16:17 0° 355° (N) 3,596 8.5 -29.6°
Reaches altitude 10° 23:18:47 10° 358° (N) 2,651 7.6 -29.8°
Enters shadow 23:24:21 70° 45° (NE) 997 4.5 -30.3°
